Lid_Strength_Index
4 4 4 4 4 4 4 4 4 4 4 4 4 4 4 4 4 4 7 6 5 3 1 4 6 6 5 5 5 4 8 10 9 8 8 5 7 5 5 5 5 6 7 4 2
4 4 4 4 4 4 4 4 4 4 4 4 4 4 4 4 5 7 4 4 3 2 4 6 7 6 7 7 6 7 9 9 7 6 7 6 6 6 6 6 6 6 6 5 1
4 4 4 4 4 4 4 4 4 4 5 5 5 4 4 4 7 7 3 2 2 1 3 5 5 5 7 6 6 7 9 7 6 5 5 6 6 6 7 7 5 5 5 6 2
4 4 4 4 4 4 4 4 5 5 5 5 5 4 4 4 10 4 0 2 2 1 2 3 3 5 6 7 6 8 7 7 6 5 6 7 5 6 6 6 4 4 3 5 4
4 4 4 4 4 4 4 4 4 4 5 4 4 4 4 6 7 3 -1 1 0 1 3 4 4 5 7 6 5 6 7 7 6 6 6 6 6 6 6 5 3 3 3 3 5
4 4 4 4 4 4 4 4 4 4 4 4 4 3 5 8 3 2 1 1 1 2 3 3 4 3 5 5 6 5 5 6 6 7 7 7 7 6 6 5 5 4 4 3 3
4 4 4 4 4 4 4 4 4 4 4 3 3 3 5 6 1 0 1 1 1 1 3 2 3 4 4 6 4 5 7 6 5 6 7 7 9 8 6 5 5 4 4 3 2
4 4 4 4 4 4 4 4 4 3 3 3 2 3 5 1 -0 0 -0 1 0 1 2 2 2 4 4 4 5 7 6 9 6 6 6 7 11 8 5 5 6 5 4 3 3
3 4 4 4 4 4 4 4 3 2 2 2 3 3 5 1 2 1 0 2 1 1 2 2 3 4 5 7 8 7 10 9 8 5 6 7 10 7 5 5 6 6 5 4 4
3 4 4 5 5 4 4 4 2 2 2 2 3 5 3 4 2 2 1 1 3 3 4 4 5 7 6 8 12 10 10 9 9 7 6 7 9 7 5 5 6 5 5 4 4
4 4 4 5 5 4 4 3 5 5 4 6 5 4 3 1 1 2 2 2 3 4 7 5 8 10 8 7 7 8 9 9 8 6 7 8 7 7 6 6 6 5 5 4 4
4 4 4 5 5 5 4 6 5 5 8 4 4 3 2 2 4 3 2 5 5 8 6 7 10 7 6 7 8 8 10 10 8 7 7 8 8 7 6 6 5 5 5 4 3
4 4 4 5 5 5 5 5 3 3 7 6 4 4 3 2 4 4 3 4 6 8 8 10 8 6 7 8 9 9 10 10 10 8 7 8 9 8 7 7 6 5 4 4 4
4 4 4 5 6 4 5 4 2 3 9 9 7 4 3 3 6 3 3 4 6 8 8 9 7 8 8 9 9 12 8 9 10 11 14 8 14 9 7 8 7 6 5 5 4
4 4 5 6 4 5 4 2 2 3 14 8 7 2 3 5 5 5 2 4 8 8 8 10 8 9 10 9 8 11 8 9 10 12 12 11 12 10 7 9 8 7 5 5 4
5 5 5 4 3 4 3 2 3 10 15 9 6 6 6 6 6 5 5 4 4 8 7 8 6 8 8 7 7 7 10 10 10 12 18 12 12 11 9 8 8 6 5 5 4
5 5 5 3 6 3 2 4 10 14 8 9 8 7 7 8 7 7 7 8 11 15 12 9 8 7 7 9 8 10 14 18 19 19 17 10 12 10 7 7 6 6 5 5 4
6 6 5 4 3 3 3 8 14 12 10 7 7 7 9 8 8 8 9 10 8 9 13 14 14 9 7 9 11 12 12 16 22 18 14 10 13 10 6 5 5 5 4 4 3
7 2 3 4 3 3 6 11 12 10 8 9 8 10 10 8 8 9 9 10 9 8 15 15 14 8 8 8 9 14 16 11 16 14 15 12 10 7 6 6 6 5 4 4 3
5 4 5 4 2 3 8 12 10 8 7 7 12 9 13 11 11 11 10 8 9 8 8 13 17 9 8 8 9 11 10 16 15 19 19 13 12 11 8 7 7 6 5 4 3
5 7 5 3 3 6 10 10 9 7 6 8 10 11 11 11 11 13 11 9 8 9 9 11 14 12 10 12 13 13 15 13 12 13 18 16 13 7 7 6 7 5 5 4 3
6 9 5 3 8 7 10 10 9 8 6 7 7 8 10 11 13 13 12 11 8 9 13 10 13 16 12 8 7 9 11 12 17 16 13 14 16 7 6 5 5 5 4 4 3
8 8 5 4 11 10 8 9 9 9 8 8 8 7 8 11 14 12 10 8 8 10 13 12 14 17 15 12 10 12 10 10 11 11 15 19 17 7 7 7 5 5 4 4 4
8 10 7 6 7 10 10 10 10 8 8 6 7 7 9 11 9 12 11 9 9 9 7 9 13 15 17 14 13 14 11 10 11 15 14 15 14 10 8 9 5 5 4 5 6
7 9 9 11 9 10 9 10 10 10 8 6 8 8 9 13 12 11 9 10 10 9 9 11 15 14 13 12 11 13 11 12 12 11 16 14 14 11 8 9 6 5 6 7 7
9 10 8 10 9 10 11 10 11 9 9 8 9 8 8 11 11 12 10 11 12 10 11 10 15 13 14 11 11 12 10 11 12 12 12 13 14 9 7 8 6 8 8 8 7
5 5 8 9 10 10 10 10 10 9 7 6 7 8 10 8 7 6 6 8 10 12 12 12 13 14 16 12 12 16 14 13 13 12 13 15 11 9 10 9 9 8 7 7 7